Weather in Châtel

France     46°15′58″N   6°50′29″E
temp.,
°C
wind,
m/s
gust,
m/s
humid.,
%
clouds,
%
prec.,
mm/h
press.,
hPa
HPBL,
m
29 june, wed
wed2923:00+12wnw009831 0.3 101828
02:00+12se119671 0.3 101820
05:00+10sse119519 0.0 101716
08:00+13s119133 0.0 1017198
11:00+18nnw216572 0.1 10151099
14:00+18nw226764 0.2 1015839
17:00+20nnw225476 0.1 10141315
20:00+18n127335 0.1 1014122
30 june, thu
thu3023:00+14se21820 0.0 101517
02:00+12se22892 0.0 101526
05:00+12se228510 0.0 101424
08:00+16wsw117033 0.0 1013176
11:00+22nw12475 0.1 10111156
14:00+22nw235199 0.1 10111018
17:00+19w0274100 3.1 1012590
20:00+14nw1198100 11.9 1015132
1 july, fri
fri123:00+11nnw22100100 3.5 1018238
02:00+10nw23100100 4.6 1018403
05:00+9nw11100100 1.6 1019244
08:00+9n119794 3.4 1019265
11:00+9n2398100 0.4 1020336
14:00+10nne118984 0.6 1021456
17:00+15n116358 0.1 10211182
20:00+14n22670 0.1 1021254
2 july, sat
sat223:00+8se22900 0.0 102324
02:00+8se22900 0.0 102327
05:00+7se22880 0.0 102325
08:00+12ese11610 0.0 1022127
11:00+20nw22390 0.0 1021696
14:00+23nw33350 0.0 10201164
17:00+23nw23387 0.0 10201223
20:00+19wnw016710 0.0 102112
3 july, sun
sun323:00+14sse32627 0.0 102328
02:00+14sse32425 0.0 102328
05:00+14sse32441 0.0 102228
08:00+18sse22544 0.0 102160
11:00+25wnw123546 0.0 1020863
14:00+27nw243069 0.0 10181989
17:00+25nw223896 0.0 10181068
20:00+22nnw11650 0.0 101813